Location: Çavd?r
(36.3833°N, 30.1333°E)
Time: 07:32:18
(UTC+00:00)

Daily predictions for brighter satellites

Satellite Brightness Start Highest point End
(mag) Time Altitude Azimuth Time Altitude Azimuth Time Altitude Azimuth
Cosmos 2297 Rocket 2.5 16:02:49 10° NNW 16:08:29 77° WSW 16:14:06 10° SSE
Cosmos 2369 3.8 16:06:03 10° S 16:11:41 62° ESE 16:17:19 10° NNE
NOSS 3-1 (A) 4.3 16:04:07 10° NNW 16:11:49 60° NE 16:20:41 10° SE
Cosmos 1707 2.7 16:08:14 10° N 16:12:03 86° W 16:15:50 10° S
CZ-4 R/B 2.9 16:10:56 10° ESE 16:13:47 18° ENE 16:16:40 10° NNE
Cosmos 1626 2.1 16:10:41 10° N 16:14:16 58° E 16:17:49 10° SSE
Cosmos 1763 Rocket 3.5 16:09:42 10° N 16:14:42 59° ENE 16:19:43 10° SSE
COSMO-SKYMED 1 2.9 16:11:21 10° N 16:15:43 74° WNW 16:20:01 10° SSW
Okean 2 3.7 16:11:51 10° N 16:15:50 43° E 16:19:46 10° SSE
OAO 2 Rocket 3.9 16:12:07 10° SW 16:16:44 42° SSE 16:21:20 10° E
CZ-4B DEB 4.2 16:12:58 10° SSE 16:18:24 81° ENE 16:23:53 10° NNW
Cosmos 2278 4.3 16:14:10 10° SSE 16:19:13 34° ESE 16:24:16 10° NE
Meteor 2-10 4.5 16:16:15 10° SSE 16:21:39 45° E 16:26:56 10° NNE
SL-16 R/B 3.6 16:19:42 10° SE 16:22:53 15° E 16:26:06 10° ENE
CZ-4 R/B 4.4 16:19:02 10° SSE 16:23:07 77° ENE 16:27:14 10° N
Cosmos 1741 Rocket 4.0 16:26:02 10° S 16:31:15 66° ESE 16:36:29 10° NNE
Cosmos 1437 Rocket 4.3 16:32:58 10° SE 16:35:54 16° E 16:37:40 10° NE
Nadezhda 4 Rocket 4.4 16:30:58 10° SSE 16:36:49 41° E 16:42:41 10° NNE
ARGOS Delta rocket 4.0 16:33:54 10° NNE 16:39:12 84° E 16:44:11 10° S
Okean O Rocket 1.9 16:37:18 10° SE 16:41:25 44° ENE 16:45:34 10° N
Cosmos 1809 Rocket 4.4 16:36:14 10° S 16:42:15 71° E 16:48:18 10° NNE
Cosmos 1908 Rocket 4.3 16:38:34 10° SSE 16:42:17 28° E 16:46:00 10° NNE
Cosmos 2219 3.5 16:40:27 10° NNW 16:46:11 73° WSW 16:51:54 10° SSE
DELTA 2 R/B(2) 4.2 16:47:22 10° WNW 16:49:14 52° NNE 16:50:37 26° E
Cosmos 1242 Rocket 3.7 16:47:36 10° SSW 16:51:02 44° W 16:54:28 10° N
Landsat 5 4.2 16:49:02 10° NNE 16:53:06 33° E 16:57:05 10° SSE
Cosmos 2263 Rocket 2.8 16:48:32 10° N 16:53:49 37° ENE 16:56:54 21° ESE
CZ-2C R/B 1.5 16:51:09 10° W 16:54:13 40° SSW 16:55:40 25° SE
COBE Rocket 3.9 16:50:29 10° SSE 16:55:26 89° WSW 17:00:17 10° NNW
YAOGAN 1 2.4 16:51:13 10° SSE 16:55:31 82° ENE 16:59:52 10° N
USA 267 3.4 16:49:25 10° SE 16:55:59 80° SW 17:02:34 10° NW
Cosmos 1805 4.0 16:52:31 10° SSW 16:56:19 55° W 17:00:08 10° N
SL-14 R/B 3.2 16:54:44 10° N 16:58:41 70° E 17:02:39 10° SSE
SOZ 4.0 16:57:45 10° SW 16:59:56 76° SE 17:02:18 20° NE
Cosmos 1726 2.0 16:57:19 10° S 17:00:56 84° W 17:04:35 10° N
Cosmos 1674 Rocket 3.5 16:57:09 10° N 17:01:31 62° E 17:05:54 10° SSE
IRIDIUM 106 4.2 16:56:30 10° S 17:01:41 71° E 17:06:53 10° N
Cosmos 2082 3.7 16:59:24 10° NNW 17:05:10 85° ENE 17:10:53 10° SSE
Cosmos 1766 3.2 17:06:15 10° S 17:10:08 87° W 17:14:04 10° N
Cosmos 1092 Rocket 4.2 17:07:47 10° SSE 17:13:45 45° E 17:19:41 10° NNE
IGS 5A 4.4 17:23:23 33° NE 17:23:23 33° NE 17:26:11 10° N
Cosmos 2221 Rocket 4.5 17:19:11 10° NNW 17:23:34 51° W 17:27:57 10° SSW
Cosmos 968 Rocket 3.3 17:21:16 10° S 17:26:29 72° ESE 17:31:43 10° NNE
Cosmos 2237 4.5 17:22:39 10° S 17:35:13 - NNE 17:27:34 43° ESE
ATLAS 5 CENTAUR R/B 4.2 17:02:06 10° WSW 17:29:09 31° S 17:34:31 21° SE
Cosmos 1378 Rocket 4.1 17:26:25 10° NNW 17:30:43 58° W 17:34:58 10° S
USA 229 DEB 4.3 17:27:59 10° NW 17:35:28 65° WSW 17:42:20 14° SSE
USA 229 4.3 17:28:05 10° NW 17:35:34 66° WSW 17:42:21 15° SSE
Hubble Space Telescope 2.6 17:34:30 10° WSW 17:37:20 21° SSW 17:37:20 21° SSW
Cosmos 2322 Rocket 2.6 17:33:31 10° S 17:46:11 - NNE 17:37:35 42° SSE
CSL-04 Rocket 3.5 17:40:02 60° ESE 17:40:44 68° ENE 17:46:04 10° N
Okean-O 3.2 17:46:36 46° N 17:46:36 46° N 17:49:50 10° N
CZ-4 R/B 3.2 17:44:44 10° SSW 17:48:26 32° W 17:52:12 10° NNW
Cosmos 841 Rocket 4.4 17:43:33 10° NNW 17:48:28 45° WSW 17:51:58 18° SSW
Cosmos 1627 Rocket 4.3 17:43:40 10° S 17:49:47 81° E 17:55:55 10° N
ISS -1.2 17:48:48 10° NNW 17:49:52 17° NNW 17:49:52 17° NNW
SJ-6B 4.4 17:54:52 27° NNW 17:54:52 27° NNW 17:56:41 10° NNW
SEDSat Delta rocket 4.1 17:46:58 10° WSW 17:53:10 57° S 17:53:47 55° SSE
Cosmos 1570 Rocket 4.4 17:50:15 10° N 17:54:22 50° NNE 17:54:22 50° NNE
Cosmos 1428 Rocket 4.5 17:51:15 10° S 17:57:23 78° W 18:03:37 10° N
OAO 2 Rocket 3.7 17:56:21 10° W 18:00:16 56° WSW 18:00:16 56° WSW
SL-16 R/B 2.6 18:00:47 10° SSW 18:06:22 62° WNW 18:12:00 10° NNE
Meteor 1-24 Rocket 4.0 18:05:01 10° N 18:09:12 57° NNW 18:09:12 57° NNW
Cosmos 2026 Rocket 4.2 18:09:02 10° SSW 18:15:02 63° W 18:21:03 10° N
Cosmos 2285 Rocket 4.3 18:13:49 10° NNW 18:20:05 63° WSW 18:20:53 58° SW
SL-4 R/B 4.3 18:16:02 10° NW 18:18:03 22° NNW 18:18:03 22° NNW
Cosmos 1844 Rocket 4.3 18:15:08 10° N 18:17:37 24° N 18:17:37 24° N
BREEZE-M TANK 4.1 18:19:17 10° WSW 18:24:53 42° SW 18:24:53 42° SW
Cosmos 2263 Rocket 3.9 18:32:49 10° NW 18:37:29 27° WSW 18:38:39 25° WSW
